Location: Clermont
(50.2608°N, 4.3172°E)
Time: 03:30:43
(UTC+00:00)

Timation 2 Rocket - Pass Details

Date: 13 August 2020
Orbit: 907 x 1075 km, 70.0° (Epoch: 25 September)

Event Time Altitude Azimuth Distance (km) Brightness Sun altitude
Exits shadow 23:26:03 56° 134° (SE) 1,101 3.9 -25.3°
Maximum altitude 23:26:33 57° 114° (ESE) 1,082 4.0 -25.3°
Drops below altitude 10° 23:32:25 10° 37° (NE) 2,610 6.8 -25.4°
Sets 23:34:56 0° 34° (NNE) 3,549 7.7 -25.4°
